Location: Chmeln�
(49.6483°N, 14.9871°E)
Time: 07:58:42
(UTC+00:00)

Cosmos 1674 - Pass Details

Date: 18 September 2020
Orbit: 494 x 517 km, 82.5° (Epoch: 24 October)

Event Time Altitude Azimuth Distance (km) Brightness Sun altitude
Rises 19:02:13 0° 350° (N) 2,654 6.8 -18.9°
Reaches altitude 10° 19:04:22 10° 351° (N) 1,762 5.9 -19.2°
Maximum altitude 19:08:14 87° 79° (E) 527 2.6 -19.8°
Enters shadow 19:09:10 51° 167° (SSE) 662 2.9 -19.9°
